User: anonymous   Login
Location: Caltech
(34.1382°N, 118.1253°W)
Time: 13:40:06
(UTC-07:00)
Language:

Oscar 16 - Orbit

View from above orbital plane
View from above orbital plane
View from above satellite
View from above satellite

Ground track
Ground track

The orbit data is extracted from the following two-line orbital elements,

1 20439U 90005D   14303.89420856  .00000178  00000-0  81663-4 0  1610
2 20439 098.5183 238.7372 0012035 116.7627 289.4961 14.32415384293915
Epoch (UTC): 30 October 2014 21:27:39
Eccentricity: 0.0012035
inclination: 98.5183°
perigee height: 775 km
apogee height: 792 km
right ascension of ascending node: 238.7372°
argument of perigee: 116.7627°
revolutions per day: 14.32415384
mean anomaly at epoch: 289.4961°
orbit number at epoch: 29391

The dashed part of the orbit path shows where the satellite is in the earth's shadow,  

DLR